{"data":{"norad_id":58729,"intl_designator":"2024-005B","name":"STARLINK-31115","alt_names":[],"object_type":"PAYLOAD","status":"ACTIVE","operator":null,"country":"US","launch_date":"2024-01-07","launch_site_code":"AFETR","launch_vehicle":null,"mission":null,"orbit_class":"UNKNOWN","rcs_meters":null,"size_class":null,"mass_kg":null,"dimensions":null,"purposes":["comms"],"wikipedia_slug":null,"has_3d_model":false,"image_url":null,"decayed_at":null,"tle_current":{"epoch":"2026-05-25T00:38:26.538720Z","epoch_age_seconds":82907,"freshness":"FRESH","line1":"1 58729U 24005B   26145.02669605  .00001360  00000+0  58936-4 0  9998","line2":"2 58729  43.0034 149.0423 0001288 271.1066  88.9638 15.27590186132105","mean_motion":15.27590186,"eccentricity":0.0001288,"inclination_deg":43.0034,"raan_deg":149.0423,"arg_perigee_deg":271.1066,"mean_anomaly_deg":88.9638,"bstar":5.8936e-5,"rev_number":13210,"period_min":94.266120141204,"perigee_km":482.13487882002,"apogee_km":483.90231250146,"semimajor_km":6861.1555956607,"source":"CELESTRAK","updated_at":"2026-05-25T13:38:18.719125Z"}}}